Main page
METAR-TAF:

METAR-TAF

Airports :

Pembrey Airport

Pembrey, Wales

latitude: 51-43N, longitude: 004-22W, elevation: 3 m

Current weather observation

The report was made 46 minutes ago, at 21:50 UTC
Wind 12 kt from the West
Temperature 12°C
Humidity 82%
Pressure 1018 hPa
Visibility 10 km or more

METAR: EGOP 212150Z AUTO 28012KT 9999 // FEW060/// SCT210/// 12/09 Q1018

Time: 23:36 (22:36 UTC)


TAF: missing

Weather observations and forecasts of more than 4000 airports (METAR and TAF reports).

The available stations are represented by yellow and red dots on the map.

Hover mouse over dot to see the name of the station.

Then click to see weather observations and forecasts.

To change the map : click on the green buttons with a black cross to zoom in, on the green button with a dash to zoom out, or on the green arrows for adjacent maps.


METAR-TAF: